This is the latest recevied weather packets stored in our database for station/object N1ORT. If no packets are shown the sender has not sent any weather packets the latest 10 day(s).
| Time | Temp. | Humidity | Pressure | Rain* | Wind** | Luminosity | Snow |
|---|---|---|---|---|---|---|---|
| 1777718572 | 5.56° C | 91% | 1009.6 hPa | 0 mm | - | 29 W/m² | - |
| 1777718269 | 5.56° C | 90% | 1009.7 hPa | 0 mm | - | 20 W/m² | - |
| 1777717966 | 5.56° C | 90% | 1009.8 hPa | 0 mm | - | 13 W/m² | - |
| 1777717663 | 6.11° C | 89% | 1010 hPa | 1.27 mm | - | 20 W/m² | - |
| 1777717359 | 6.11° C | 88% | 1009.9 hPa | 1.78 mm | - | 10 W/m² | - |
| 1777717058 | 6.11° C | 88% | 1009.9 hPa | 0.51 mm | - | 5 W/m² | - |
| 1777716756 | 6.11° C | 88% | 1009.8 hPa | 0 mm | - | 2 W/m² | - |
| 1777716453 | 6.11° C | 87% | 1009.6 hPa | 0 mm | - | 2 W/m² | - |
| 1777716152 | 5.56° C | 89% | 1009.5 hPa | 0 mm | - | 3 W/m² | - |
| 1777715850 | 6.11° C | 90% | 1009.4 hPa | 0 mm | - | 3 W/m² | - |
| 1777715547 | 6.11° C | 89% | 1009.5 hPa | 0 mm | - | 3 W/m² | - |
| 1777715245 | 6.11° C | 88% | 1009.6 hPa | 0 mm | - | 2 W/m² | - |
| 1777714943 | 6.11° C | 87% | 1009.4 hPa | 0 mm | - | 2 W/m² | - |
| 1777714640 | 6.11° C | 86% | 1009.2 hPa | 0 mm | - | 1 W/m² | - |
| 1777714338 | 6.11° C | 86% | 1009.5 hPa | 0 mm | - | 0 W/m² | - |
| 1777714035 | 6.11° C | 86% | 1009.5 hPa | 0 mm | - | 0 W/m² | - |
| 1777713733 | 6.67° C | 82% | 1009.7 hPa | 0 mm | - | 0 W/m² | - |
| 1777713429 | 6.67° C | 80% | 1009.8 hPa | 0 mm | - | 0 W/m² | - |
| 1777713125 | 6.67° C | 78% | 1009.8 hPa | 0 mm | - | 0 W/m² | - |
| 1777712823 | 6.67° C | 77% | 1009.6 hPa | 0 mm | - | 0 W/m² | - |
| 1777712520 | 6.67° C | 78% | 1009.5 hPa | 0 mm | - | 0 W/m² | - |
| 1777712216 | 6.67° C | 78% | 1009.4 hPa | 0 mm | - | 0 W/m² | - |
| 1777711908 | 6.67° C | 77% | 1009.6 hPa | 0 mm | - | 0 W/m² | - |
| 1777711605 | 6.67° C | 79% | 1009.5 hPa | 0 mm | - | 0 W/m² | - |
| 1777711299 | 6.67° C | 80% | 1009.4 hPa | 0 mm | - | 0 W/m² | - |
* Rain latest hour (hover to see other rain measurements)
** Current wind speed in m/s (hover to see current wind gust speed)